Location: Newark
(41.7772°N, 74.7403°W)
Time: 12:46:31
(UTC+00:00)

Transit 4A - Pass Details

Date: 28 May 2020
Orbit: 866 x 978 km, 66.8° (Epoch: 06 July)

Event Time Altitude Azimuth Distance (km) Brightness Sun altitude
Exits shadow 08:37:28 - 259° (W) 2,794 9.9 -8.6°
Reaches altitude 10° 08:38:25 10° 265° (W) 2,517 9.7 -8.5°
Maximum altitude 08:42:59 23° 317° (NW) 1,775 9.4 -7.8°
Drops below altitude 10° 08:47:37 10° 9° (N) 2,565 10.9 -7.2°
Sets 08:50:42 0° 23° (NNE) 3,527 12.1 -6.7°
